Tracking 19177 objects as of 24-May-2018
HD Live streaming from Space Station
objects crossing your sky now

COSMOS 886

Track COSMOS 886 now!
10-day predictions
COSMOS 886 is classified as:


NORAD ID: 9634
Int'l Code: 1976-126A
Perigee: 598.4 km
Apogee: 2,293.8 km
Inclination: 65.8 °
Period: 114.6 minutes
Semi major axis: 7817 km
RCS: 4.7964 m2 (large)
Launch date: December 27, 1976
Source: Commonwealth of Independent States (former USSR) (CIS)
Launch site: TYURATAM MISSILE AND SPACE COMPLEX (TTMTR)
aabbcc
Your satellite tracking list
Your tracking list is empty




NASA's NSSDC Master Catalog

Two Line Element Set (TLE):
1  9634U 76126A   18143.94078158 -.00000079 +00000-0 -61724-5 0  9996
2  9634 065.8350 350.4458 1084441 019.1631 344.7062 12.56135821910104
Source of the keplerian elements: AFSPC